Change the Weather History Date:

Monday, March 18, 2013

  Actual Average Record
Temperature  
Mean Temperature 36 °F 40 °F  
Max Temperature 47 °F 51 °F 72 °F (2004)
Min Temperature 25 °F 29 °F 8 °F (1965)
Degree Days  
Heating Degree Days 29 25  
Month to date heating degree days 415 492  
Since 1 July heating degree days 5173 5514  
Cooling Degree Days 0 0  
Month to date cooling degree days 0 0  
Year to date cooling degree days 0 0  
Moisture  
Dew Point 16 °F    
Average Humidity 46    
Maximum Humidity 58    
Minimum Humidity 34    
Precipitation  
Precipitation 0.00 in 0.03 in 0.42 in (2006)
Month to date precipitation 0.12 0.60  
Year to date precipitation 0.48 2.28  
Sea Level Pressure  
Sea Level Pressure 30.08 in    
Wind  
Wind Speed 14 mph (WSW)    
Max Wind Speed 28 mph    
Max Gust Speed 39 mph    
Visibility 10 miles    
Events      
T = Trace of Precipitation, MM = Missing Value Source: NWS Daily Summary

Daily Weather History Graph

Daily Weather History Graph

Search for Another Location

Airport or City:

Trip Planner

Search our weather history database for the weather conditions in past years. The results will help you decide how hot, cold, wet, or windy it might be!

Date:

Astronomy

Mar. 18, 2013 Rise Set
Actual Time 7:41 AM MDT 7:45 PM MDT
Civil Twilight 7:13 AM MDT 8:13 PM MDT
Nautical Twilight 6:40 AM MDT 8:46 PM MDT
Astronomical Twilight 6:06 AM MDT 9:19 PM MDT
Moon 11:36 AM MDT (3/18) 1:55 AM MDT (3/18)
Length of Visible Light 13h 00m
Length of Day
12h 04m
Waxing Crescent, 41% of the Moon is Illuminated
Mar 18
Waxing Crescent
Mar 19
First Quarter
Mar 27
Full
Apr 2
Last Quarter
Apr 10
New

Hourly Weather History & Observations

Time (MDT) Temp. Windchill Dew Point Humidity Pressure Visibility Wind Dir Wind Speed Gust Speed Precip Events Conditions
12:53 AM 28.0 °F 20.0 °F 10.9 °F 49% 30.06 in 10.0 mi WSW 8.1 mph - N/A   Clear
1:53 AM 28.0 °F 20.0 °F 10.9 °F 49% 30.06 in 10.0 mi SW 8.1 mph - N/A   Overcast
2:53 AM 28.0 °F 19.3 °F 12.0 °F 51% 30.07 in 10.0 mi SSW 9.2 mph - N/A   Scattered Clouds
3:53 AM 28.0 °F 18.6 °F 12.0 °F 51% 30.06 in 10.0 mi SSW 10.4 mph - N/A   Clear
4:53 AM 27.0 °F 16.7 °F 12.9 °F 56% 30.06 in 10.0 mi SW 11.5 mph - N/A   Partly Cloudy
5:53 AM 26.1 °F 16.2 °F 12.9 °F 58% 30.07 in 10.0 mi SSW 10.4 mph - N/A   Clear
6:53 AM 26.1 °F 16.8 °F 12.0 °F 55% 30.09 in 10.0 mi SW 9.2 mph - N/A   Clear
7:53 AM 28.0 °F 18.1 °F 14.0 °F 56% 30.12 in 10.0 mi SW 11.5 mph - N/A   Overcast
8:53 AM 30.9 °F 21.2 °F 15.1 °F 52% 30.12 in 10.0 mi WSW 12.7 mph - N/A   Clear
9:53 AM 35.1 °F 25.9 °F 15.1 °F 44% 30.12 in 10.0 mi WSW 13.8 mph 20.7 mph N/A   Clear
10:53 AM 37.9 °F 28.5 °F 15.1 °F 39% 30.12 in 10.0 mi WSW 17.3 mph 21.9 mph N/A   Clear
11:53 AM 39.0 °F 32.3 °F 16.0 °F 39% 30.12 in 10.0 mi West 10.4 mph 20.7 mph N/A   Overcast
12:53 PM 42.1 °F 33.6 °F 18.0 °F 38% 30.09 in 10.0 mi West 18.4 mph 28.8 mph N/A   Clear
1:53 PM 45.0 °F 36.4 °F 19.0 °F 36% 30.06 in 10.0 mi West 23.0 mph 33.4 mph N/A   Clear
2:53 PM 46.0 °F 37.6 °F 19.0 °F 34% 30.05 in 10.0 mi West 24.2 mph 35.7 mph N/A   Clear
3:53 PM 46.9 °F - 19.0 °F 33% 30.03 in 10.0 mi West 21.9 mph 35.7 mph N/A   Clear
4:53 PM 46.9 °F - 19.9 °F 34% 30.02 in 10.0 mi West 21.9 mph 33.4 mph N/A   Clear
5:53 PM 46.0 °F 38.8 °F 19.0 °F 34% 30.03 in 10.0 mi West 18.4 mph 34.5 mph N/A   Clear
6:53 PM 44.1 °F 35.2 °F 19.0 °F 37% 30.04 in 10.0 mi West 23.0 mph 33.4 mph N/A   Clear
7:53 PM 39.9 °F 31.1 °F 18.0 °F 41% 30.05 in 10.0 mi West 17.3 mph 25.3 mph N/A   Clear
8:53 PM 37.9 °F 32.1 °F 19.0 °F 47% 30.08 in 10.0 mi WNW 8.1 mph - N/A   Clear
9:53 PM 33.1 °F 28.7 °F 18.0 °F 54% 30.12 in 10.0 mi SE 4.6 mph - N/A   Clear
10:53 PM 30.9 °F 22.8 °F 18.0 °F 59% 30.13 in 10.0 mi SSW 9.2 mph - N/A   Clear
11:53 PM 30.9 °F 23.5 °F 17.1 °F 57% 30.14 in 10.0 mi SW 8.1 mph - N/A   Clear